Location: Newark
(46.3833°N, 6.2000°E)
Time: 01:14:31
(UTC+00:00)

N. Korean satellite - Visible Passes

Search period start: 27 February 2020 00:00
Search period end: 08 March 2020 00:00
Orbit: 456 x 505 km, 97.2° (Epoch: 26 February)

Date Brightness Start Highest point End Pass type
(mag) Time Alt. Az. Time Alt. Az. Time Alt. Az.
27 Feb 10.3 04:11:18 10° ENE 04:12:04 10° E 04:12:50 10° E visible
27 Feb 6.6 05:42:11 10° N 05:45:52 62° WNW 05:49:29 10° SSW visible
28 Feb 7.2 05:16:38 10° NNE 05:20:19 63° E 05:23:58 10° S visible
29 Feb 8.7 04:51:22 10° NNE 04:54:41 31° E 04:57:57 10° SSE visible
01 Mar 9.8 04:26:35 10° NE 04:28:57 16° E 04:31:18 10° SE visible
02 Mar 6.6 05:33:19 10° N 05:37:02 80° WNW 05:40:40 10° SSW visible
03 Mar 7.7 05:07:51 10° NNE 05:11:27 48° E 05:14:59 10° S visible
04 Mar 9.2 04:42:42 10° NE 04:45:47 24° E 04:48:47 10° SSE visible
05 Mar 10.0 04:18:16 10° ENE 04:19:59 13° E 04:21:42 10° ESE visible
06 Mar 6.8 05:24:28 10° NNE 05:28:10 80° ESE 05:31:46 10° S visible
07 Mar 8.3 04:59:05 10° NNE 05:02:33 38° E 05:05:55 10° SSE visible
